Regional Weather Roundup
Issued by NWS

Home | Current Version | Previous Version | Text Only | Print | Product List | Glossary Off
Versions: 1 2 3 4 5 6 7 8 9 10 11 12 13 14 15 16 17 18 19 20 21 22 23 24 25 26 27 28 29 30 31 32 33 34 35 36 37 38 39 40 41 42 43 44 45 46 47 48 49 50

000
ASUS43 KDTX 301401
RWRMI
MICHIGAN HOURLY REGIONAL WEATHER ROUNDUP
NATIONAL WEATHER SERVICE DETROIT/PONTIAC MI
900 AM EST FRI JAN 30 2015

NOTE: "FAIR" INDICATES FEW OR NO CLOUDS BELOW 12,000 FEET WITH NO
SIGNIFICANT WEATHER AND/OR OBSTRUCTION TO VISIBILITY.

MIZ047>049-052>055-059>063-066>070-074>076-081>083-301500-
SOUTHEAST LOWER MICHIGAN

CITY           SKY/WX    TMP DP  RH WIND       PRES   REMARKS
ADRIAN         CLOUDY    19   8  62 N16       30.40R WCI   4
ALMA           CLOUDY    16   7  67 N8G17     30.43R WCI   5
ANN ARBOR      SUNNY     16   5  62 NW17G26   30.38R WCI   0
BAD AXE        CLOUDY    10   4  77 NW20      30.37R WCI  -8
CARO           CLEAR     10   0  66 NW9       30.41R WCI  -4
DETROIT CITY   MOSUNNY   16   2  54 NW15G25   30.38R WCI   1
DETROIT        CLOUDY    19  14  81 NW9       30.38R WCI   8
FLINT          MOCLDY    14   3  61 N14       30.41R WCI  -1
GROSSE ILE     CLOUDY    18   7  62 N18G24    30.38R WCI   2
HILLSDALE      CLOUDY    19   8  62 N12G21    30.37R WCI   6
HOWELL         MOCLDY    13   4  66 N9G21     30.39R WCI   1

CITY           SKY/WX    TMP DP  RH WIND       PRES   REMARKS
JACKSON        CLOUDY    17   7  64 N13G22    30.39R WCI   4
LAMBERTVILLE   SUNNY     19   9  63 N13G21    30.40R WCI   7
LANSING        CLOUDY    16   6  65 N17G28    30.43R WCI   0
LAPEER         FAIR      10   1  67 N9G17     30.39R WCI  -3
MASON          CLOUDY    16   7  67 N14       30.41R WCI   1
MONROE         SUNNY     18   7  62 N10       30.38R WCI   6
MT. CLEMENS    PTSUNNY   14   4  65 NW16      30.35R WCI  -2
PONTIAC        PTSUNNY   12   4  70 N15       30.36R WCI  -4
PORT HOPE        N/A     15  11  83 NW14G21   30.35R WCI   0
PORT HURON     CLOUDY    12   3  67 NW16      30.35R WCI  -4
TRI CITIES     FAIR      13   2  61 N8        30.44R WCI   2
SAGINAW HB     PTCLDY    12   3  67 N13G18    30.43R WCI  -3
$$
MIZ043>046-050>051-056>058-064>065-071>073-077>080-301500-
SOUTHWEST LOWER MICHIGAN

CITY           SKY/WX    TMP DP  RH WIND       PRES   REMARKS
BATTLE CREEK   CLOUDY    20   6  55 NW13      30.41R WCI   7
BENTON HARBOR  LGT SNOW  22  16  78 N8G18     30.46R WCI  12
BIG RAPIDS     CLOUDY    17  10  74 N6        30.40R WCI   8
COLDWATER      CLOUDY    19   7  59 NW12G18   30.40R WCI   7
FREMONT        FLURRIES  18  10  72 N7        30.44R WCI   9
HOLLAND        CLOUDY    21   9  59 VRB7      30.46S WCI  12
GRAND RAPIDS   CLOUDY    20   7  57 N13       30.44R WCI   7
IONIA          CLOUDY    19   8  61 N12G20    30.42R WCI   7
KALAMAZOO      CLOUDY    20   9  62 N17       30.43R WCI   5
LUDINGTON      LGT SNOW  21  13  72 N7        30.46R WCI  12
MARSHALL       CLOUDY    18   7  61 N13G21    30.40R WCI   5
MOUNT PLEASANT CLOUDY    16   5  62 N9G16     30.42R WCI   4
MUSKEGON       FLURRIES  20  10  65 N9        30.47R WCI   9
SOUTH HAVEN    FLURRIES  23  13  65 N14       30.46R WCI  11
$$
MIZ016>042-301500-
NORTHERN LOWER MICHIGAN

CITY           SKY/WX    TMP DP  RH WIND       PRES   REMARKS
ALPENA         LGT SNOW   5   1  83 NW14G22   30.43R FOG     WCI -12
BEAVER ISLAND  CLOUDY    10   5  80 CALM      30.45R
CADILLAC       FLURRIES  12   7  82 NE3       30.36R
CHARLEVOIX     CLOUDY     8   2  78 E6        30.48R WCI  -2
FRANKFORT      CLOUDY    18   9  69 N7        30.45R WCI   8
GAYLORD        CLOUDY     4  -1  80 NE8       30.37R WCI  -9
GRAYLING       CLOUDY     8   1  74 N5        30.40R WCI   0
HARBOR SPRINGS CLOUDY     5  -1  74 CALM      30.45R
HOUGHTON LAKE  MOCLDY     9   0  67 N10       30.39R WCI  -5
MANISTEE       CLOUDY    19   7  58 N9        30.45R WCI   9
OSCODA         CLOUDY     8  -1  69 N13       30.41R WCI  -8
PELLSTON       CLOUDY     4  -3  73 NE8       30.46R WCI  -9
ROGERS CITY    MOCLDY     5   1  82 N12G17    30.45R WCI -10
TRAVERSE CITY  CLOUDY    16   9  74 NE12G20   30.42R WCI   3
$$
MIZ007>008-015-301500-
EASTERN UPPER MICHIGAN

CITY           SKY/WX    TMP DP  RH WIND       PRES   REMARKS
KINROSS        CLOUDY    -2  -9  71 CALM      30.45R
MACKINAC ISLAN MOCLDY     1  -7  70 N9        30.45R WCI -14
NEWBERRY       LGT SNOW   3   1  89 CALM      30.42R
S. S. MARIE    PTCLDY    -3 -13  62 NE6       30.44R WCI -15
MUNISING         N/A     16   4  59 NW13      30.44R WCI   2
$$
MIZ004>006-011>014-085-301500-
CENTRAL UPPER MICHIGAN

CITY           SKY/WX    TMP DP  RH WIND       PRES   REMARKS
MANISTIQUE     CLOUDY    13  10  90 CALM      30.44R
ESCANABA       CLOUDY    10   0  61 NW10      30.48R WCI  -3
MENOMINEE      CLOUDY    12   1  62 N7        30.49S WCI   2
SAWYER-GWINN   CLOUDY     9   1  72 NW6       30.42R WCI  -1
$$
MIZ001>003-009>011-084-301500-
WESTERN UPPER MICHIGAN

CITY           SKY/WX    TMP DP  RH WIND       PRES   REMARKS
IRON MOUNTAIN  CLOUDY     8  -1  66 NW5       30.43S WCI   0
HOUGHTON       LGT SNOW   8   2  76 NW5       30.42S WCI   0
COPPER HARBOR    N/A     12   3  67 N10G23    30.46R WCI  -1
IRONWOOD       CLOUDY    10   3  72 W6        30.41S WCI   1
$$

ABBREVIATIONS USED IN REMARKS
   TC - TEMPERATURE IN CELSIUS
  WCI - WIND CHILL INDEX
   HX - HEAT INDEX
  VSB - VISIBILITY



USA.gov is the U.S. government's official web portal to all federal, state and local government web resources and services.